Starlink 6304

operational
NORAD ID: 56778 Int'l Des: 2023-078 Owner: SPXS Country: US Constellation: starlink
LEOCIRCULAR

About Starlink 6304

Description loading...

Live Position

Loading 3D Globe...

Upcoming Passes

Altitude History

Altitude vs Time

uPlot chart will show altitude changes over time

Two-Line Element Set

1 56778U 23078M 25308.34118113 -.00000310 00000-0 -18180-4 0 9991
2 56778 69.9995 280.6579 0002798 268.5080 91.5759 14.98330102134391
Epoch: Nov 4, 2025 • Age: 11 hours

Current Status

Altitude 593.5 km
Velocity 7.56 km/s
Sub-Earth Point -62.09°S, 94.27°W
Launch Date May 31, 2023
Age 2.4 years
Type internet

Technical Details

Classification Payload
Mass 305.00 kg
Dry Mass 290.00 kg
Total Mass 305.00 kg
Length 0.20 m
Diameter 2.80 m
Span 9.00 m
Shape Box + pan
Manufacturer SPXS
Bus Type Starlink
Phase Status In Orbit
Owner/State SPXS/US

Large Constellations

Loading constellations...